,,PA_Meas_PMT16A,,PR_Meas_QMR101_102,,RH_Meas_QMH101,,SR_Meas_QMS101,,TA_Meas_QMH101,,GenWind,,GenWind,
time,status,PA,status,PR,status,RH,status,SR,status,TA,status,DirAvg,status,SpdAvg,
2010-12-17, 00:00:04,VALID,916.617,VALID,0,VALID,96.5353,VALID,0,VALID,19.5273,VALID,312,VALID,0.589453,
2010-12-17, 00:01:04,VALID,916.644,VALID,0,VALID,96.5429,VALID,0,VALID,19.5078,VALID,312,VALID,0.417188,
2010-12-17, 00:02:04,VALID,916.622,VALID,0,VALID,96.5124,VALID,0,VALID,19.5078,VALID,312,VALID,0.657422,
2010-12-17, 00:03:04,VALID,916.613,VALID,0,VALID,96.5201,VALID,0,VALID,19.5078,VALID,312,VALID,0.355078,
2010-12-17, 00:04:04,VALID,916.576,VALID,0,VALID,96.5124,VALID,0,VALID,19.4883,VALID,311,VALID,0.563672,
2010-12-17, 00:05:04,VALID,916.578,VALID,0,VALID,96.5429,VALID,0,VALID,19.4478,VALID,311,VALID,0.685938,
2010-12-17, 00:06:04,VALID,916.585,VALID,0,VALID,96.5963,VALID,0,VALID,19.4673,VALID,312,VALID,0.418359,
2010-12-17, 00:07:04,VALID,916.56,VALID,0,VALID,96.6344,VALID,0,VALID,19.4868,VALID,312,VALID,0.571094,
2010-12-17, 00:08:04,VALID,916.586,VALID,0,VALID,96.6649,VALID,0,VALID,19.5273,VALID,312,VALID,0.353125,
2010-12-17, 00:09:04,VALID,916.579,VALID,0,VALID,96.6192,VALID,0,VALID,19.4868,VALID,312,VALID,0.475781,
2010-12-17, 00:10:04,VALID,916.608,VALID,0,VALID,96.5887,VALID,0,VALID,19.4673,VALID,312,VALID,0.207031,
2010-12-17, 00:11:04,VALID,916.603,VALID,0,VALID,96.5887,VALID,0.107441,VALID,19.4688,VALID,312,VALID,0.81875,
2010-12-17, 00:12:04,VALID,916.577,VALID,0,VALID,96.6268,VALID,0,VALID,19.4493,VALID,312,VALID,0.502734,
2010-12-17, 00:13:04,VALID,916.565,VALID,0,VALID,96.642,VALID,0,VALID,19.4283,VALID,312,VALID,0.638281,
2010-12-17, 00:14:04,VALID,916.545,VALID,0,VALID,96.6497,VALID,0,VALID,19.4298,VALID,312,VALID,0.7875,
2010-12-17, 00:15:04,VALID,916.533,VALID,0,VALID,96.6725,VALID,0,VALID,19.4103,VALID,312,VALID,0.358984,
2010-12-17, 00:16:04,VALID,916.526,VALID,0,VALID,96.6725,VALID,0,VALID,19.4298,VALID,312,VALID,0.233203,
2010-12-17, 00:17:04,VALID,916.521,VALID,0,VALID,96.6192,VALID,0,VALID,19.3908,VALID,312,VALID,0.227344,
2010-12-17, 00:18:04,VALID,916.51,VALID,0,VALID,96.6573,VALID,0,VALID,19.3908,VALID,312,VALID,0.262891,
2010-12-17, 00:19:04,VALID,916.542,VALID,0,VALID,96.6878,VALID,0,VALID,19.4103,VALID,312,VALID,0.0105469,
2010-12-17, 00:20:04,VALID,916.532,VALID,0,VALID,96.703,VALID,0,VALID,19.4103,VALID,312,VALID,0,
2010-12-17, 00:21:04,VALID,916.519,VALID,0,VALID,96.6878,VALID,0,VALID,19.4313,VALID,312,VALID,0,
2010-12-17, 00:22:04,VALID,916.525,VALID,0,VALID,96.6573,VALID,0,VALID,19.4103,VALID,312,VALID,0,
2010-12-17, 00:23:04,VALID,916.481,VALID,0,VALID,96.6115,VALID,0,VALID,19.3908,VALID,312,VALID,0.119531,
2010-12-17, 00:24:04,VALID,916.47,VALID,0,VALID,96.5811,VALID,0,VALID,19.3908,VALID,312,VALID,0.400391,
2010-12-17, 00:25:04,VALID,916.484,VALID,0,VALID,96.5734,VALID,0,VALID,19.3713,VALID,312,VALID,0.306641,
2010-12-17, 00:26:04,VALID,916.471,VALID,0,VALID,96.5582,VALID,0.107441,VALID,19.3698,VALID,312,VALID,0.608203,
2010-12-17, 00:27:04,VALID,916.448,VALID,0,VALID,96.5124,VALID,0,VALID,19.3698,VALID,312,VALID,0.733594,
2010-12-17, 00:28:04,VALID,916.471,VALID,0,VALID,96.4972,VALID,0,VALID,19.3893,VALID,312,VALID,0.127734,
2010-12-17, 00:29:04,VALID,916.489,VALID,0,VALID,96.4591,VALID,0,VALID,19.3908,VALID,312,VALID,0,
2010-12-17, 00:30:04,VALID,916.456,VALID,0,VALID,96.4438,VALID,0,VALID,19.3908,VALID,312,VALID,0,
2010-12-17, 00:31:04,VALID,916.466,VALID,0,VALID,96.3981,VALID,0,VALID,19.4103,VALID,312,VALID,0,
2010-12-17, 00:32:04,VALID,916.42,VALID,0,VALID,96.36,VALID,0,VALID,19.4103,VALID,312,VALID,0.435937,
2010-12-17, 00:33:04,VALID,916.405,VALID,0,VALID,96.2304,VALID,0,VALID,19.3503,VALID,312,VALID,0.55625,
2010-12-17, 00:34:04,VALID,916.41,VALID,0,VALID,96.1999,VALID,0,VALID,19.3923,VALID,312,VALID,0.620313,
2010-12-17, 00:35:04,VALID,916.421,VALID,0,VALID,96.1923,VALID,0,VALID,19.3503,VALID,312,VALID,0.2375,
2010-12-17, 00:36:04,VALID,916.458,VALID,0,VALID,96.1694,VALID,0,VALID,19.3713,VALID,312,VALID,0.0175781,
2010-12-17, 00:37:04,VALID,916.388,VALID,0,VALID,96.1618,VALID,0,VALID,19.3308,VALID,312,VALID,0,
2010-12-17, 00:38:04,VALID,916.394,VALID,0,VALID,96.1236,VALID,0,VALID,19.3518,VALID,312,VALID,0.235547,
2010-12-17, 00:39:04,VALID,916.358,VALID,0,VALID,96.1084,VALID,0,VALID,19.3518,VALID,312,VALID,0,
2010-12-17, 00:40:04,VALID,916.355,VALID,0,VALID,96.055,VALID,0,VALID,19.3518,VALID,312,VALID,0,
2010-12-17, 00:41:04,VALID,916.344,VALID,0,VALID,96.0169,VALID,0,VALID,19.3518,VALID,312,VALID,0,
2010-12-17, 00:42:04,VALID,916.317,VALID,0,VALID,95.9941,VALID,0,VALID,19.3503,VALID,312,VALID,0,
2010-12-17, 00:43:04,VALID,916.337,VALID,0,VALID,95.9788,VALID,0,VALID,19.3713,VALID,312,VALID,0,
2010-12-17, 00:44:04,VALID,916.331,VALID,0,VALID,95.9712,VALID,0,VALID,19.3713,VALID,312,VALID,0.248828,
2010-12-17, 00:45:04,VALID,916.323,VALID,0,VALID,95.895,VALID,0,VALID,19.3728,VALID,312,VALID,0.286328,
2010-12-17, 00:46:04,VALID,916.327,VALID,0,VALID,95.8416,VALID,0,VALID,19.3323,VALID,312,VALID,0.431641,
2010-12-17, 00:47:04,VALID,916.334,VALID,0,VALID,95.8492,VALID,0,VALID,19.3533,VALID,312,VALID,0.640625,
2010-12-17, 00:48:04,VALID,916.33,VALID,0,VALID,95.8187,VALID,0,VALID,19.3128,VALID,312,VALID,0.612891,
2010-12-17, 00:49:04,VALID,916.34,VALID,0,VALID,95.773,VALID,0,VALID,19.2933,VALID,312,VALID,0.406641,
2010-12-17, 00:50:04,VALID,916.319,VALID,0,VALID,95.7425,VALID,0,VALID,19.2738,VALID,312,VALID,0.392188,
2010-12-17, 00:51:04,VALID,916.355,VALID,0,VALID,95.712,VALID,0,VALID,19.2738,VALID,312,VALID,0.553125,
2010-12-17, 00:52:04,VALID,916.311,VALID,0,VALID,95.7044,VALID,0,VALID,19.2348,VALID,312,VALID,0.216406,
2010-12-17, 00:53:04,VALID,916.304,VALID,0,VALID,95.7044,VALID,0,VALID,19.2348,VALID,312,VALID,0.247656,
2010-12-17, 00:54:04,VALID,916.307,VALID,0,VALID,95.7501,VALID,0,VALID,19.2558,VALID,312,VALID,0,
2010-12-17, 00:55:04,VALID,916.321,VALID,0,VALID,95.8263,VALID,0,VALID,19.2348,VALID,312,VALID,0,
2010-12-17, 00:56:04,VALID,916.299,VALID,0,VALID,95.8416,VALID,0,VALID,19.2348,VALID,312,VALID,0.246484,
2010-12-17, 00:57:04,VALID,916.278,VALID,0,VALID,95.8416,VALID,0,VALID,19.2348,VALID,312,VALID,0.744141,
2010-12-17, 00:58:04,VALID,916.304,VALID,0,VALID,95.8492,VALID,0,VALID,19.2348,VALID,312,VALID,0.0609375,
2010-12-17, 00:59:04,VALID,916.277,VALID,0,VALID,95.8492,VALID,0,VALID,19.2348,VALID,312,VALID,0,
2010-12-17, 01:00:04,VALID,916.273,VALID,0,VALID,95.8873,VALID,0,VALID,19.2948,VALID,312,VALID,0,
2010-12-17, 01:01:04,VALID,916.25,VALID,0,VALID,95.9026,VALID,0,VALID,19.2753,VALID,312,VALID,0,
2010-12-17, 01:02:04,VALID,916.249,VALID,0,VALID,95.9102,VALID,0,VALID,19.2558,VALID,312,VALID,0,
2010-12-17, 01:03:04,VALID,916.213,VALID,0,VALID,95.9712,VALID,0,VALID,19.2753,VALID,312,VALID,0.0746094,
2010-12-17, 01:04:04,VALID,916.227,VALID,0,VALID,96.0627,VALID,0,VALID,19.2933,VALID,312,VALID,0,
2010-12-17, 01:05:04,VALID,916.214,VALID,0,VALID,96.1541,VALID,0,VALID,19.3338,VALID,312,VALID,0.0882813,
2010-12-17, 01:06:04,VALID,916.222,VALID,0,VALID,96.1923,VALID,0,VALID,19.3128,VALID,312,VALID,0,
2010-12-17, 01:07:04,VALID,916.201,VALID,0,VALID,96.2228,VALID,0,VALID,19.2933,VALID,312,VALID,0,
2010-12-17, 01:08:04,VALID,916.155,VALID,0,VALID,96.3142,VALID,0,VALID,19.3128,VALID,312,VALID,0,
2010-12-17, 01:09:04,VALID,916.173,VALID,0,VALID,96.3447,VALID,0,VALID,19.3533,VALID,312,VALID,0,
2010-12-17, 01:10:04,VALID,916.166,VALID,0,VALID,96.3371,VALID,0,VALID,19.3128,VALID,312,VALID,0,
2010-12-17, 01:11:04,VALID,916.184,VALID,0,VALID,96.36,VALID,0,VALID,19.2933,VALID,312,VALID,0,
2010-12-17, 01:12:04,VALID,916.177,VALID,0,VALID,96.3142,VALID,0,VALID,19.2933,VALID,312,VALID,0,
2010-12-17, 01:13:04,VALID,916.157,VALID,0,VALID,96.3981,VALID,0,VALID,19.2738,VALID,312,VALID,0,
2010-12-17, 01:14:04,VALID,916.133,VALID,0,VALID,96.3981,VALID,0,VALID,19.2738,VALID,312,VALID,0,
2010-12-17, 01:15:04,VALID,916.138,VALID,0,VALID,96.4819,VALID,0,VALID,19.2933,VALID,312,VALID,0,
2010-12-17, 01:16:04,VALID,916.124,VALID,0,VALID,96.4972,VALID,0,VALID,19.3143,VALID,312,VALID,0,
2010-12-17, 01:17:04,VALID,916.099,VALID,0,VALID,96.4896,VALID,0,VALID,19.3143,VALID,312,VALID,0,
2010-12-17, 01:18:04,VALID,916.083,VALID,0,VALID,96.5277,VALID,0,VALID,19.2933,VALID,312,VALID,0,
2010-12-17, 01:19:04,VALID,916.094,VALID,0,VALID,96.5658,VALID,0,VALID,19.2933,VALID,312,VALID,0,
2010-12-17, 01:20:04,VALID,916.114,VALID,0,VALID,96.5887,VALID,0,VALID,19.2933,VALID,312,VALID,0,
2010-12-17, 01:21:04,VALID,916.073,VALID,0,VALID,96.5734,VALID,0,VALID,19.2948,VALID,312,VALID,0,
2010-12-17, 01:22:04,VALID,916.065,VALID,0,VALID,96.5963,VALID,0,VALID,19.2933,VALID,312,VALID,0,
2010-12-17, 01:23:04,VALID,916.058,VALID,0,VALID,96.6192,VALID,0,VALID,19.2738,VALID,312,VALID,0,
2010-12-17, 01:24:04,VALID,916.046,VALID,0,VALID,96.6649,VALID,0,VALID,19.2738,VALID,312,VALID,0,
2010-12-17, 01:25:04,VALID,916.009,VALID,0,VALID,96.7107,VALID,0,VALID,19.2948,VALID,312,VALID,0,
2010-12-17, 01:26:04,VALID,916.023,VALID,0,VALID,96.7335,VALID,0,VALID,19.3143,VALID,312,VALID,0,
2010-12-17, 01:27:04,VALID,916.012,VALID,0,VALID,96.7488,VALID,0,VALID,19.2933,VALID,312,VALID,0,
2010-12-17, 01:28:04,VALID,915.982,VALID,0,VALID,96.6573,VALID,0,VALID,19.2738,VALID,312,VALID,0,
2010-12-17, 01:29:04,VALID,915.977,VALID,0,VALID,96.7183,VALID,0,VALID,19.2738,VALID,312,VALID,0,
2010-12-17, 01:30:04,VALID,915.976,VALID,0,VALID,96.6725,VALID,0,VALID,19.2543,VALID,312,VALID,0,
2010-12-17, 01:31:04,VALID,915.94,VALID,0,VALID,96.7259,VALID,0,VALID,19.2753,VALID,312,VALID,0,
2010-12-17, 01:32:04,VALID,915.925,VALID,0,VALID,96.7564,VALID,0,VALID,19.2363,VALID,312,VALID,0,
2010-12-17, 01:33:04,VALID,915.923,VALID,0,VALID,96.7716,VALID,0,VALID,19.2558,VALID,312,VALID,0,
2010-12-17, 01:34:04,VALID,915.928,VALID,0,VALID,96.6649,VALID,0,VALID,19.1958,VALID,312,VALID,0,
2010-12-17, 01:35:04,VALID,915.879,VALID,0,VALID,96.7335,VALID,0,VALID,19.2348,VALID,312,VALID,0,
2010-12-17, 01:36:04,VALID,915.909,VALID,0,VALID,96.7793,VALID,0,VALID,19.2153,VALID,312,VALID,0,
2010-12-17, 01:37:04,VALID,915.889,VALID,0,VALID,96.764,VALID,0,VALID,19.1958,VALID,312,VALID,0,
2010-12-17, 01:38:04,VALID,915.867,VALID,0,VALID,96.7564,VALID,0,VALID,19.1958,VALID,312,VALID,0,
2010-12-17, 01:39:04,VALID,915.867,VALID,0,VALID,96.7793,VALID,0,VALID,19.1958,VALID,312,VALID,0,
2010-12-17, 01:40:04,VALID,915.837,VALID,0,VALID,96.7793,VALID,0,VALID,19.1958,VALID,312,VALID,0,
2010-12-17, 01:41:04,VALID,915.832,VALID,0,VALID,96.7945,VALID,0,VALID,19.1958,VALID,312,VALID,0,
2010-12-17, 01:42:04,VALID,915.798,VALID,0,VALID,96.7945,VALID,0,VALID,19.2168,VALID,312,VALID,0,
2010-12-17, 01:43:04,VALID,915.807,VALID,0,VALID,96.7793,VALID,0,VALID,19.1958,VALID,312,VALID,0,
2010-12-17, 01:44:04,VALID,915.787,VALID,0,VALID,96.7945,VALID,0,VALID,19.1958,VALID,312,VALID,0,
2010-12-17, 01:45:04,VALID,915.761,VALID,0,VALID,96.8021,VALID,0,VALID,19.1973,VALID,312,VALID,0,
2010-12-17, 01:46:04,VALID,915.755,VALID,0,VALID,96.7335,VALID,0,VALID,19.1778,VALID,312,VALID,0,
2010-12-17, 01:47:04,VALID,915.722,VALID,0,VALID,96.7335,VALID,0,VALID,19.1388,VALID,312,VALID,0,
2010-12-17, 01:48:04,VALID,915.684,VALID,0,VALID,96.7488,VALID,0,VALID,19.0983,VALID,312,VALID,0,
2010-12-17, 01:49:04,VALID,915.67,VALID,0,VALID,96.7411,VALID,0,VALID,19.1193,VALID,312,VALID,0,
2010-12-17, 01:50:04,VALID,915.663,VALID,0,VALID,96.7716,VALID,0,VALID,19.1178,VALID,312,VALID,0,
2010-12-17, 01:51:04,VALID,915.645,VALID,0,VALID,96.7488,VALID,0,VALID,19.1178,VALID,312,VALID,0,
2010-12-17, 01:52:04,VALID,915.654,VALID,0,VALID,96.7488,VALID,0,VALID,19.1388,VALID,312,VALID,0,
2010-12-17, 01:53:04,VALID,915.633,VALID,0,VALID,96.7564,VALID,0,VALID,19.1388,VALID,312,VALID,0,
2010-12-17, 01:54:04,VALID,915.65,VALID,0,VALID,96.8174,VALID,0,VALID,19.1568,VALID,312,VALID,0,
2010-12-17, 01:55:04,VALID,915.614,VALID,0,VALID,96.7793,VALID,0,VALID,19.1373,VALID,312,VALID,0,
2010-12-17, 01:56:04,VALID,915.612,VALID,0,VALID,96.764,VALID,0,VALID,19.1583,VALID,312,VALID,0,
2010-12-17, 01:57:04,VALID,915.598,VALID,0,VALID,96.7793,VALID,0,VALID,19.1388,VALID,312,VALID,0,
2010-12-17, 01:58:04,VALID,915.587,VALID,0,VALID,96.764,VALID,0,VALID,19.1388,VALID,312,VALID,0,
2010-12-17, 01:59:04,VALID,915.548,VALID,0,VALID,96.7411,VALID,0,VALID,19.1193,VALID,312,VALID,0,
2010-12-17, 02:00:04,VALID,915.549,VALID,0,VALID,96.7183,VALID,0,VALID,19.1193,VALID,312,VALID,0.0621094,
2010-12-17, 02:01:04,VALID,915.527,VALID,0,VALID,96.7107,VALID,0,VALID,19.0788,VALID,267,VALID,0.494922,
2010-12-17, 02:02:04,VALID,915.521,VALID,0,VALID,96.7183,VALID,0,VALID,19.0788,VALID,267,VALID,0.299609,
2010-12-17, 02:03:04,VALID,915.473,VALID,0,VALID,96.703,VALID,0,VALID,19.0593,VALID,267,VALID,0.530859,
2010-12-17, 02:04:04,VALID,915.464,VALID,0,VALID,96.6878,VALID,0,VALID,19.0398,VALID,267,VALID,0.680078,
2010-12-17, 02:05:04,VALID,915.461,VALID,0,VALID,96.6802,VALID,0,VALID,19.0413,VALID,267,VALID,0.673047,
2010-12-17, 02:06:04,VALID,915.443,VALID,0,VALID,96.6725,VALID,0,VALID,19.0008,VALID,267,VALID,0.507422,
2010-12-17, 02:07:04,VALID,915.429,VALID,0,VALID,96.7564,VALID,0,VALID,19.0398,VALID,267,VALID,0.49375,
2010-12-17, 02:08:04,VALID,915.444,VALID,0,VALID,96.642,VALID,0,VALID,18.9994,VALID,267,VALID,1.09063,
2010-12-17, 02:09:04,VALID,915.425,VALID,0,VALID,96.6497,VALID,0,VALID,18.9814,VALID,267,VALID,1.05313,
2010-12-17, 02:10:04,VALID,915.456,VALID,0,VALID,96.6954,VALID,0,VALID,18.9828,VALID,267,VALID,0.475391,
2010-12-17, 02:11:04,VALID,915.479,VALID,0,VALID,96.6954,VALID,0,VALID,18.9814,VALID,267,VALID,0.228906,
2010-12-17, 02:12:04,VALID,915.424,VALID,0,VALID,96.7259,VALID,0,VALID,18.9814,VALID,267,VALID,0.197266,
2010-12-17, 02:13:04,VALID,915.455,VALID,0,VALID,96.7259,VALID,0,VALID,18.9814,VALID,267,VALID,0,
2010-12-17, 02:14:04,VALID,915.442,VALID,0,VALID,96.7107,VALID,0,VALID,18.9828,VALID,267,VALID,0,
2010-12-17, 02:15:04,VALID,915.398,VALID,0,VALID,96.703,VALID,0,VALID,18.9814,VALID,267,VALID,0,
2010-12-17, 02:16:04,VALID,915.409,VALID,0,VALID,96.7335,VALID,0,VALID,19.0218,VALID,267,VALID,0,
2010-12-17, 02:17:04,VALID,915.374,VALID,0,VALID,96.7411,VALID,0,VALID,18.9814,VALID,267,VALID,0,
2010-12-17, 02:18:04,VALID,915.362,VALID,0,VALID,96.7411,VALID,0,VALID,19.0008,VALID,267,VALID,0,
2010-12-17, 02:19:04,VALID,915.363,VALID,0,VALID,96.6878,VALID,0,VALID,19.0023,VALID,267,VALID,0,
2010-12-17, 02:20:04,VALID,915.373,VALID,0,VALID,96.703,VALID,0,VALID,18.9814,VALID,267,VALID,0.291406,
2010-12-17, 02:21:04,VALID,915.352,VALID,0,VALID,96.6268,VALID,0,VALID,18.9619,VALID,267,VALID,0.455859,
2010-12-17, 02:22:04,VALID,915.329,VALID,0,VALID,96.5963,VALID,0,VALID,18.9633,VALID,267,VALID,0.652344,
2010-12-17, 02:23:04,VALID,915.322,VALID,0,VALID,96.5963,VALID,0,VALID,18.9229,VALID,267,VALID,0.619922,
2010-12-17, 02:24:04,VALID,915.347,VALID,0,VALID,96.6115,VALID,0,VALID,18.9034,VALID,267,VALID,0.398438,
2010-12-17, 02:25:04,VALID,915.32,VALID,0,VALID,96.6344,VALID,0,VALID,18.9438,VALID,267,VALID,0.536328,
2010-12-17, 02:26:04,VALID,915.325,VALID,0,VALID,96.6192,VALID,0,VALID,18.9034,VALID,267,VALID,0.536328,
2010-12-17, 02:27:04,VALID,915.272,VALID,0,VALID,96.6649,VALID,0,VALID,18.9034,VALID,267,VALID,0.581641,
2010-12-17, 02:28:04,VALID,915.266,VALID,0,VALID,96.6649,VALID,0,VALID,18.8824,VALID,267,VALID,0.357031,
2010-12-17, 02:29:04,VALID,915.242,VALID,0,VALID,96.6573,VALID,0,VALID,18.9034,VALID,267,VALID,0.517969,
2010-12-17, 02:30:04,VALID,915.263,VALID,0,VALID,96.6497,VALID,0,VALID,18.8839,VALID,267,VALID,0.308203,
2010-12-17, 02:31:04,VALID,915.225,VALID,0,VALID,96.6878,VALID,0,VALID,18.8839,VALID,267,VALID,0.561328,
2010-12-17, 02:32:04,VALID,915.217,VALID,0,VALID,96.7107,VALID,0,VALID,18.8839,VALID,267,VALID,0.364062,
2010-12-17, 02:33:04,VALID,915.181,VALID,0,VALID,96.7335,VALID,0,VALID,18.8839,VALID,267,VALID,0.251563,
2010-12-17, 02:34:04,VALID,915.134,VALID,0,VALID,96.7793,VALID,0,VALID,18.9034,VALID,267,VALID,0.616406,
2010-12-17, 02:35:04,VALID,915.163,VALID,0,VALID,96.7411,VALID,0,VALID,18.9048,VALID,267,VALID,0.672656,
2010-12-17, 02:36:04,VALID,915.154,VALID,0,VALID,96.7183,VALID,0,VALID,18.8644,VALID,267,VALID,0.290234,
2010-12-17, 02:37:04,VALID,915.142,VALID,0,VALID,96.6954,VALID,0,VALID,18.8449,VALID,267,VALID,0.501953,
2010-12-17, 02:38:04,VALID,915.111,VALID,0,VALID,96.703,VALID,0,VALID,18.8463,VALID,267,VALID,0.417578,
2010-12-17, 02:39:04,VALID,915.13,VALID,0,VALID,96.7183,VALID,0,VALID,18.8463,VALID,267,VALID,0.685547,
2010-12-17, 02:40:04,VALID,915.141,VALID,0,VALID,96.7335,VALID,0,VALID,18.8059,VALID,267,VALID,0.79375,
2010-12-17, 02:41:04,VALID,915.138,VALID,0,VALID,96.7107,VALID,0,VALID,18.8059,VALID,267,VALID,0.619531,
2010-12-17, 02:42:04,VALID,915.174,VALID,0,VALID,96.764,VALID,0,VALID,18.7864,VALID,267,VALID,0.330078,
2010-12-17, 02:43:04,VALID,915.155,VALID,0,VALID,96.8021,VALID,0,VALID,18.7669,VALID,267,VALID,0.573047,
2010-12-17, 02:44:04,VALID,915.148,VALID,0,VALID,96.7716,VALID,0,VALID,18.7669,VALID,5,VALID,1.40781,
2010-12-17, 02:45:04,VALID,915.166,VALID,0,VALID,96.7869,VALID,0,VALID,18.7878,VALID,4,VALID,0.865234,
2010-12-17, 02:46:04,VALID,915.142,VALID,0,VALID,96.7945,VALID,0,VALID,18.7683,VALID,5,VALID,0.614844,
2010-12-17, 02:47:04,VALID,915.15,VALID,0,VALID,96.8021,VALID,0,VALID,18.7669,VALID,5,VALID,0.844141,
2010-12-17, 02:48:04,VALID,915.127,VALID,0,VALID,96.8021,VALID,0,VALID,18.7878,VALID,5,VALID,1.07031,
2010-12-17, 02:49:04,VALID,915.121,VALID,0,VALID,96.8098,VALID,0,VALID,18.7669,VALID,5,VALID,0.875391,
2010-12-17, 02:50:04,VALID,915.112,VALID,0,VALID,96.7716,VALID,0,VALID,18.7864,VALID,5,VALID,0.435547,
2010-12-17, 02:51:04,VALID,915.11,VALID,0,VALID,96.7411,VALID,0,VALID,18.8073,VALID,5,VALID,0.424219,
2010-12-17, 02:52:04,VALID,915.075,VALID,0,VALID,96.7259,VALID,0,VALID,18.8059,VALID,5,VALID,0.658984,
2010-12-17, 02:53:04,VALID,915.093,VALID,0,VALID,96.6954,VALID,0,VALID,18.7864,VALID,5,VALID,0.464453,
2010-12-17, 02:54:04,VALID,915.097,VALID,0,VALID,96.6878,VALID,0,VALID,18.7864,VALID,5,VALID,0.194922,
2010-12-17, 02:55:04,VALID,915.058,VALID,0,VALID,96.7183,VALID,0,VALID,18.8254,VALID,5,VALID,0.521484,
2010-12-17, 02:56:04,VALID,915.054,VALID,0,VALID,96.6573,VALID,0,VALID,18.8254,VALID,5,VALID,0.578516,
2010-12-17, 02:57:04,VALID,915.04,VALID,0,VALID,96.6268,VALID,0,VALID,18.8059,VALID,5,VALID,0.266406,
2010-12-17, 02:58:04,VALID,915.065,VALID,0,VALID,96.5429,VALID,0,VALID,18.8463,VALID,5,VALID,0.795313,
2010-12-17, 02:59:04,VALID,915.035,VALID,0,VALID,96.4667,VALID,0,VALID,18.8254,VALID,5,VALID,0.574219,
2010-12-17, 03:00:04,VALID,915.04,VALID,0,VALID,96.3676,VALID,0,VALID,18.8449,VALID,5,VALID,0.665234,
2010-12-17, 03:01:04,VALID,914.991,VALID,0,VALID,96.238,VALID,0,VALID,18.8254,VALID,5,VALID,0.619141,
2010-12-17, 03:02:04,VALID,914.995,VALID,0,VALID,96.1236,VALID,0,VALID,18.8449,VALID,5,VALID,0.795703,
2010-12-17, 03:03:04,VALID,915.039,VALID,0,VALID,96.0169,VALID,0,VALID,18.8839,VALID,5,VALID,0.516797,
2010-12-17, 03:04:04,VALID,915.003,VALID,0,VALID,95.8797,VALID,0,VALID,18.8839,VALID,5,VALID,0.905469,
2010-12-17, 03:05:04,VALID,915.002,VALID,0,VALID,95.834,VALID,0,VALID,18.9034,VALID,5,VALID,0.545313,
2010-12-17, 03:06:04,VALID,914.973,VALID,0,VALID,95.7196,VALID,0,VALID,18.9034,VALID,5,VALID,0.692969,
2010-12-17, 03:07:04,VALID,914.951,VALID,0,VALID,95.6281,VALID,0,VALID,18.9048,VALID,5,VALID,0.497266,
2010-12-17, 03:08:04,VALID,914.947,VALID,0,VALID,95.6053,VALID,0,VALID,18.9243,VALID,5,VALID,0.0546875,
2010-12-17, 03:09:04,VALID,914.983,VALID,0,VALID,95.5824,VALID,0,VALID,18.9438,VALID,5,VALID,0.429297,
2010-12-17, 03:10:04,VALID,914.936,VALID,0,VALID,95.5519,VALID,0,VALID,18.9229,VALID,5,VALID,0.396484,
2010-12-17, 03:11:04,VALID,914.952,VALID,0,VALID,95.5138,VALID,0,VALID,18.9424,VALID,5,VALID,0,
2010-12-17, 03:12:04,VALID,914.98,VALID,0,VALID,95.4528,VALID,0,VALID,18.9633,VALID,5,VALID,0.234766,
2010-12-17, 03:13:04,VALID,914.945,VALID,0,VALID,95.4147,VALID,0,VALID,18.9828,VALID,5,VALID,0.231641,
2010-12-17, 03:14:04,VALID,914.932,VALID,0,VALID,95.4452,VALID,0,VALID,19.0023,VALID,5,VALID,0,
2010-12-17, 03:15:04,VALID,914.911,VALID,0,VALID,95.4299,VALID,0,VALID,19.0203,VALID,5,VALID,0.530469,
2010-12-17, 03:16:04,VALID,914.875,VALID,0,VALID,95.2851,VALID,0,VALID,19.0008,VALID,5,VALID,0.499219,
2010-12-17, 03:17:04,VALID,914.858,VALID,0,VALID,95.2393,VALID,0,VALID,19.0203,VALID,5,VALID,0.313281,
2010-12-17, 03:18:04,VALID,914.887,VALID,0,VALID,95.1707,VALID,0,VALID,18.9994,VALID,5,VALID,0.370703,
2010-12-17, 03:19:04,VALID,914.866,VALID,0,VALID,95.1479,VALID,0,VALID,19.0008,VALID,5,VALID,0.693359,
2010-12-17, 03:20:04,VALID,914.882,VALID,0,VALID,95.0183,VALID,0,VALID,19.0008,VALID,5,VALID,0.323438,
2010-12-17, 03:21:04,VALID,914.89,VALID,0,VALID,95.0792,VALID,0,VALID,19.0203,VALID,5,VALID,0,
2010-12-17, 03:22:04,VALID,914.87,VALID,0,VALID,95.0716,VALID,0,VALID,19.0398,VALID,5,VALID,0.096875,
2010-12-17, 03:23:04,VALID,914.852,VALID,0,VALID,95.125,VALID,0,VALID,19.0203,VALID,5,VALID,0,
2010-12-17, 03:24:04,VALID,914.85,VALID,0,VALID,95.0411,VALID,0,VALID,19.0218,VALID,5,VALID,0.373437,
2010-12-17, 03:25:04,VALID,914.836,VALID,0,VALID,95.0411,VALID,0,VALID,19.0203,VALID,5,VALID,0.414063,
2010-12-17, 03:26:04,VALID,914.826,VALID,0,VALID,94.9954,VALID,0.107441,VALID,18.9994,VALID,5,VALID,0.319922,
2010-12-17, 03:27:04,VALID,914.827,VALID,0,VALID,94.9192,VALID,0.107441,VALID,18.9814,VALID,5,VALID,0.557813,
2010-12-17, 03:28:04,VALID,914.829,VALID,0,VALID,94.8963,VALID,0.107441,VALID,18.9619,VALID,5,VALID,0.550391,
2010-12-17, 03:29:04,VALID,914.831,VALID,0,VALID,94.9496,VALID,0.107441,VALID,18.9409,VALID,5,VALID,0.341797,
2010-12-17, 03:30:04,VALID,914.82,VALID,0,VALID,94.9878,VALID,0,VALID,18.9229,VALID,5,VALID,0.480859,
2010-12-17, 03:31:04,VALID,914.806,VALID,0,VALID,95.0183,VALID,0,VALID,18.9034,VALID,5,VALID,0.349219,
2010-12-17, 03:32:04,VALID,914.788,VALID,0,VALID,95.0488,VALID,0,VALID,18.9034,VALID,5,VALID,0.306641,
2010-12-17, 03:33:04,VALID,914.776,VALID,0,VALID,95.1326,VALID,0,VALID,18.8839,VALID,4,VALID,0.0328125,
2010-12-17, 03:34:04,VALID,914.774,VALID,0,VALID,95.2165,VALID,0,VALID,18.8644,VALID,5,VALID,0.58125,
2010-12-17, 03:35:04,VALID,914.759,VALID,0,VALID,95.2165,VALID,0,VALID,18.8449,VALID,5,VALID,0.514453,
2010-12-17, 03:36:04,VALID,914.73,VALID,0,VALID,95.2317,VALID,0,VALID,18.8449,VALID,5,VALID,0.455078,
2010-12-17, 03:37:04,VALID,914.728,VALID,0,VALID,95.2393,VALID,0,VALID,18.8449,VALID,5,VALID,0.230078,
2010-12-17, 03:38:04,VALID,914.752,VALID,0,VALID,95.3003,VALID,0,VALID,18.8059,VALID,5,VALID,0.122266,
2010-12-17, 03:39:04,VALID,914.762,VALID,0,VALID,95.3461,VALID,0,VALID,18.8254,VALID,5,VALID,0.0835937,
2010-12-17, 03:40:04,VALID,914.745,VALID,0,VALID,95.4299,VALID,0,VALID,18.8658,VALID,5,VALID,0.0847656,
2010-12-17, 03:41:04,VALID,914.731,VALID,0,VALID,95.4528,VALID,0,VALID,18.8644,VALID,5,VALID,0,
2010-12-17, 03:42:04,VALID,914.698,VALID,0,VALID,95.5367,VALID,0,VALID,18.9034,VALID,5,VALID,0,
2010-12-17, 03:43:04,VALID,914.701,VALID,0,VALID,95.5595,VALID,0,VALID,18.9438,VALID,5,VALID,0.003125,
2010-12-17, 03:44:04,VALID,914.672,VALID,0,VALID,95.5367,VALID,0,VALID,18.9229,VALID,5,VALID,0.289453,
2010-12-17, 03:45:04,VALID,914.628,VALID,0,VALID,95.4985,VALID,0,VALID,18.9438,VALID,5,VALID,0.353516,
2010-12-17, 03:46:04,VALID,914.627,VALID,0,VALID,95.4604,VALID,0,VALID,18.9229,VALID,5,VALID,0.334375,
2010-12-17, 03:47:04,VALID,914.593,VALID,0,VALID,95.4147,VALID,0,VALID,18.9243,VALID,5,VALID,0.275781,
2010-12-17, 03:48:04,VALID,914.548,VALID,0,VALID,95.4147,VALID,0,VALID,18.8839,VALID,5,VALID,0.224609,
2010-12-17, 03:49:04,VALID,914.588,VALID,0,VALID,95.4985,VALID,0,VALID,18.9048,VALID,5,VALID,0,
2010-12-17, 03:50:04,VALID,914.602,VALID,0,VALID,95.4833,VALID,0,VALID,18.9048,VALID,5,VALID,0,